Location: Burzi?i
(45.0869°N, 16.0577°E)
Time: 11:24:06
(UTC+00:00)

S3M - Pass Details

Date: 29 October 2020
Orbit: 950 x 1003 km, 83.0° (Epoch: 27 November)

Event Time Altitude Azimuth Distance (km) Brightness Sun altitude
Rises 17:12:39 0° 178° (S) 3,609 7.0 -15.5°
Reaches altitude 10° 17:15:08 10° 176° (S) 2,669 6.3 -16.0°
Maximum altitude 17:21:11 70° 94° (E) 1,015 3.9 -17.0°
Drops below altitude 10° 17:27:20 10° 12° (NNE) 2,711 6.2 -18.1°
Sets 17:29:52 0° 11° (N) 3,669 6.9 -18.6°
